Change the Weather History Date:

Thursday, December 27, 2012

  Actual Average Record
Temperature  
Mean Temperature 24 °F 18 °F  
Max Temperature 26 °F 25 °F 49 °F (1936)
Min Temperature 22 °F 11 °F -22 °F (1996)
Degree Days  
Heating Degree Days 41 47  
Month to date heating degree days 937 1162  
Since 1 July heating degree days 2570 2902  
Cooling Degree Days 0 0  
Month to date cooling degree days 0 0  
Year to date cooling degree days 786 398  
Moisture  
Dew Point 16 °F    
Average Humidity 75    
Maximum Humidity 81    
Minimum Humidity 68    
Precipitation  
Precipitation T in 0.04 in 1.57 in (1904)
Month to date precipitation 2.17 1.35  
Year to date precipitation 31.16 29.36  
Snow  
Snow T in 0.40 in 7.00 in (1904)
Month to date snowfall 15.7 11.4  
Since 1 July snowfall 17.2 15.6  
Snow Depth 6.00 in    
Sea Level Pressure  
Sea Level Pressure 30.21 in    
Wind  
Wind Speed 8 mph (North)    
Max Wind Speed 15 mph    
Max Gust Speed 19 mph    
Visibility 10 miles    
Events      
T = Trace of Precipitation, MM = Missing Value Source: NWS Daily Summary

Daily Weather History Graph

Daily Weather History Graph

Search for Another Location

Airport or City:

Trip Planner

Search our weather history database for the weather conditions in past years. The results will help you decide how hot, cold, wet, or windy it might be!

Date:

Astronomy

Dec. 27, 2012 Rise Set
Actual Time 7:28 AM CST 4:19 PM CST
Civil Twilight 6:54 AM CST 4:53 PM CST
Nautical Twilight 6:18 AM CST 5:29 PM CST
Astronomical Twilight 5:42 AM CST 6:05 PM CST
Moon 4:04 PM CST (12/27) 6:37 AM CST (12/27)
Length of Visible Light 9h 58m
Length of Day
8h 51m
Full, 100% of the Moon is Illuminated
Dec 27
Full
Dec 28
Full
Jan 4
Last Quarter
Jan 11
New
Jan 18
First Quarter

Hourly Weather History & Observations

Time (CST) Temp. Windchill Dew Point Humidity Pressure Visibility Wind Dir Wind Speed Gust Speed Precip Events Conditions
12:53 AM 25.0 °F 15.5 °F 19.0 °F 78% 30.19 in 10.0 mi North 9.2 mph - N/A   Overcast
1:53 AM 24.1 °F 14.4 °F 19.0 °F 81% 30.20 in 10.0 mi North 9.2 mph - N/A   Overcast
2:53 AM 25.0 °F 13.6 °F 18.0 °F 75% 30.21 in 10.0 mi North 12.7 mph - N/A   Overcast
3:53 AM 24.1 °F 13.1 °F 18.0 °F 77% 30.22 in 10.0 mi NNW 11.5 mph - N/A   Overcast
4:53 AM 24.1 °F 12.0 °F 17.1 °F 75% 30.23 in 10.0 mi NNW 13.8 mph - N/A   Overcast
5:20 AM 24.1 °F 13.7 °F 17.1 °F 75% 30.19 in 10.0 mi NNW 10.4 mph - N/A   Overcast
5:53 AM 24.1 °F 13.7 °F 16.0 °F 71% 30.23 in 10.0 mi NNW 10.4 mph - N/A   Overcast
6:53 AM 23.0 °F 12.4 °F 16.0 °F 74% 30.24 in 10.0 mi NNW 10.4 mph - N/A   Overcast
7:53 AM 23.0 °F 11.7 °F 16.0 °F 74% 30.25 in 10.0 mi NNW 11.5 mph - N/A   Overcast
8:53 AM 24.1 °F 13.7 °F 16.0 °F 71% 30.25 in 10.0 mi NNW 10.4 mph - N/A   Overcast
9:53 AM - - - N/A% 30.23 in - North - - N/A   Unknown
10:53 AM - - - N/A% 30.22 in - North - - N/A   Unknown
11:53 AM 26.1 °F 19.4 °F 17.1 °F 69% 30.23 in 10.0 mi North 5.8 mph - N/A   Unknown
12:33 PM 26.1 °F 19.4 °F 17.1 °F 69% 30.18 in 10.0 mi North 5.8 mph - N/A   Overcast
12:53 PM 26.1 °F 19.4 °F 17.1 °F 69% 30.22 in 10.0 mi North 5.8 mph - N/A   Overcast
1:53 PM 26.1 °F 19.4 °F 17.1 °F 69% 30.22 in 10.0 mi NNW 5.8 mph - N/A   Overcast
2:53 PM 25.0 °F 19.3 °F 17.1 °F 72% 30.23 in 10.0 mi NW 4.6 mph - N/A   Overcast
3:53 PM 24.8 °F 17.9 °F 17.6 °F 74% 30.20 in 10.0 mi WNW 5.8 mph - N/A   Overcast
4:40 PM 24.1 °F 12.5 °F 17.1 °F 75% 30.19 in 10.0 mi North 12.7 mph - N/A   Overcast
4:53 PM 24.1 °F 13.1 °F 16.0 °F 71% 30.22 in 10.0 mi North 11.5 mph - N/A   Overcast
5:50 PM 24.8 °F 16.9 °F 15.8 °F 69% 30.20 in 10.0 mi NNE 6.9 mph - N/A   Overcast
5:53 PM 24.8 °F 16.9 °F 15.8 °F 69% 30.20 in 10.0 mi NNE 6.9 mph - N/A   Overcast
6:53 PM 24.1 °F 15.2 °F 15.1 °F 69% 30.24 in 10.0 mi NNE 8.1 mph - N/A   Overcast
7:21 PM 23.0 °F 12.4 °F 15.1 °F 72% 30.19 in 10.0 mi NNE 10.4 mph - N/A   Overcast
7:53 PM 23.0 °F 13.9 °F 15.1 °F 72% 30.22 in 10.0 mi NNE 8.1 mph - N/A   Mostly Cloudy
8:53 PM 21.9 °F 14.5 °F 15.1 °F 75% 30.21 in 10.0 mi North 5.8 mph - N/A   Mostly Cloudy
9:53 PM 21.9 °F 11.0 °F 15.1 °F 75% 30.16 in 10.0 mi NNE 10.4 mph - N/A   Overcast
10:53 PM 21.9 °F 17.2 °F 15.1 °F 75% 30.17 in 10.0 mi North 3.5 mph - N/A   Overcast
11:53 PM 21.9 °F 17.2 °F 15.1 °F 75% 30.19 in 10.0 mi North 3.5 mph - N/A   Overcast